{"data":{"norad_id":50163,"intl_designator":"2021-125H","name":"STARLINK-3306","alt_names":[],"object_type":"PAYLOAD","status":"ACTIVE","operator":null,"country":"US","launch_date":"2021-12-18","launch_site_code":"AFWTR","launch_vehicle":null,"mission":null,"orbit_class":"UNKNOWN","rcs_meters":null,"size_class":null,"mass_kg":null,"dimensions":null,"purposes":["comms"],"wikipedia_slug":null,"has_3d_model":false,"image_url":null,"decayed_at":null,"tle_current":{"epoch":"2026-05-25T06:00:02.000160Z","epoch_age_seconds":46754,"freshness":"FRESH","line1":"1 50163U 21125H   26145.25002315  .00078253  00000+0  39335-2 0  9991","line2":"2 50163  53.2167 255.0489 0001444  93.0298  30.1559 15.16576806  5797","mean_motion":15.16576806,"eccentricity":0.0001444,"inclination_deg":53.2167,"raan_deg":255.0489,"arg_perigee_deg":93.0298,"mean_anomaly_deg":30.1559,"bstar":0.0039335,"rev_number":579,"period_min":94.950680658108,"perigee_km":515.2001184125,"apogee_km":517.19120168472,"semimajor_km":6894.3326600486,"source":"CELESTRAK","updated_at":"2026-05-25T13:38:16.842414Z"}}}